STARLINK-4348, 53075

Orbit data source: Space-Track

STARLINK-4348, 53075 is a payload satellite owned by SpaceX/Seattle (US) in SSO that was launched on Mon, 11 Jul 2022 UTC via an FALCON 9 launch vehicle from the Air Force Western Test Range (AFWTR). Payload-class satellites include a variety of spacecraft equipped with specific instruments for various scientific and technological missions. These include communications satellites like Starlink; space stations such as the ISS; scientific satellites like the Hubble; Earth observation satellites from companies like Planet Labs, Umbra, and HawkEye 360; GPS; miniature CubeSats for education and research; and military/defense satellites.

Loading next visibility...
Identifier
53075, 2022-077AJ
Orbit
SSO
Country
Flag of USUS
Related business
Manufacturer
SpaceX/Seattle
Mission
Operational Commercial Communications
Bus & Motor
STARLINK, Unknown motor
Mass
297 kg wet, ~275 kg dry
Launch date (UTC)
2022-07-11 (3 years ago)
Launch vehicle
FALCON 9
Launch site
Air Force Western Test Range (AFWTR)
Object type
Payload
Rocket body
Debris
Shape & HBR
Box + 1 Pan, 10.1 m
Radar Cross Section
13.562 m², Large (>1 m²)

Expand to show TLE details & history
Last TLE update: 16 hours ago

TLE from 16 hours ago
0 STARLINK-4348
1 53075U 22077AJ  25348.94987149 -.00000468  00000-0 -31941-4 0  9993
2 53075  97.6011 167.2357 0001016  94.9909 265.1432 15.01255099188204
Epoch: 2025-12-14T22:47Z
TLE epoch observation values (Epoch: 2025-12-14T22:47:48.896Z)
Latitude
0.00002°
Longitude
101.42652°
Altitude
566.144 km
Speed
7.578 km/s
True Right ascension
11h 08m 56s
True Declination
0° 00' 00"
Sunlit
Object was in daylight at epoch
Visualization orbit readout
Latitude
Unknown
Longitude
Unknown
Altitude
Unknown
Speed
Unknown
Apparent Right ascension
Unknown
Apparent Declination
Unknown
Sunlit
N/A
Visualization observer readout
Local Sidereal Time
13:19:54
Azimuth
Unknown
Elevation
Unknown
Doppler factor
Unknown
Orbital elements
Apogee altitude
560.729 km
Perigee altitude
559.319 km
Semi-major axis
6,938.161 km
Eccentricity
0.0001
Inclination
97.6011°
RAAN
167.2357°
Arg. of periapsis
94.9909°
True anomaly
265.1316°
Mean anomaly
265.1432°
Eccentric anomaly
265.1374°
Mean motion
3.75558 °/min
Orbital period
95.86 mins
BSTAR
-0.000031941
Loading maneuver chart data...
Computing Atmospheric mass density...
Loading historical data...
Loading historical data...
Loading historical data...
Loading historical data...
Loading historical data...
Loading historical data...
Loading historical data...

Documentation

Showing up to 5 results
|